Hourly Weather Roundup
Issued by NWS Central Illinois

Home | Current Version | Previous Version | Text Only | Print | Product List | Glossary On
Versions: 1 2 3 4 5 6 7 8 9 10 11 12 13 14 15 16 17 18 19 20 21 22 23 24 25 26 27 28 29 30 31 32 33 34 35 36 37 38 39 40 41 42 43 44 45 46 47 48 49 50
000
NZUS43 KILX 261410
HWRILX

Area Weather Roundup
National Weather Service Lincoln IL
900 AM CDT WED JUL 26 2017

NOTE:  "FAIR" indicates few or no clouds below 12,000 feet, with
       no sigificant weather and/or obstructions to visibility.


CITY           SKY/WX    TMP DP  RH WIND       PRES   REMARKS
Bloomington    MOSUNNY   74  66  76 S7        30.10S
Champaign      MOSUNNY   74  67  78 SE7       30.10F
Danville       SUNNY     72  65  79 S6        30.08F
Decatur        MOSUNNY   76  68  76 SE7       30.08F
Effingham      MOSUNNY   77  71  81 E8        30.09S
Flora          SUNNY     79  71  77 SE6       30.08F HX  81
Galesburg      MOSUNNY   73  69  88 S6        30.07S
Jacksonville   CLOUDY    76  71  83 S5        30.05S
Lacon          CLOUDY    75  68  79 S5        30.07R
Lawrenceville  SUNNY     77  68  73 VRB5      30.09F
Litchfield     SUNNY     76  71  84 S6        30.06S
$$


CITY           SKY/WX    TMP DP  RH WIND       PRES   REMARKS
Lincoln        CLOUDY    77  70  80 S8        30.08R
Macomb         MOSUNNY   74  71  92 S6        30.08S
Mattoon        MOSUNNY   75  68  78 SE8       30.08F
Mt Carmel AP   MOSUNNY   77  68  75 SE5       30.09S
Olney-Noble AP MOSUNNY   77  73  87 SE5       30.08F
Paris AP       MOSUNNY   73  67  83 SE7       30.11F
Peoria         CLOUDY    76  69  79 S7        30.07S
Pontiac        MOSUNNY   72  69  91 SE3       30.10S
Rantoul        MOSUNNY   74  68  80 S8        30.09F
Robinson       MOSUNNY   75  68  78 SE6       30.11S
Springfield    CLOUDY    80  72  76 S7        30.07R HX  84
Taylorville    SUNNY     78  71  79 S6        30.07S
$$

...REGIONAL REPORTS...


CITY           SKY/WX    TMP DP  RH WIND       PRES   REMARKS
Chicago O`Hare CLOUDY    75  63  66 SW6       30.09R
Kankakee       CLOUDY    71  64  78 S5        30.10F
Moline         MOSUNNY   77  69  76 SW9       30.04S
Mount Sterling SUNNY     75  71  86 SE5       30.05F
Mount Vernon   SUNNY     79  73  82 S5        30.07S HX  82
Pittsfield     SUNNY     77  74  88 S5        30.06S
Quincy         SUNNY     78  72  81 SE7       30.03F HX  80
Rockford       CLOUDY    73  65  75 S8        30.09S
$$


CITY           SKY/WX    TMP DP  RH WIND       PRES   REMARKS
Burlington     CLOUDY    77  72  84 S6        30.04F
Cedar Rapids   NOT AVBL
Des Moines     CLOUDY    76  69  79 S9        30.00R
Kirksville     CLOUDY    78  73  84 S6        30.05R HX  81
Ottumwa        CLOUDY    77  72  84 S6        30.02S
St Louis       MOSUNNY   84  74  71 CALM      30.05S HX  91
$$


CITY           SKY/WX    TMP DP  RH WIND       PRES   REMARKS
Terre Haute    MOSUNNY   75  65  70 SE7       30.11F
Evansville     MOSUNNY   73  69  87 SE6       30.09F
Indianapolis   MOSUNNY   72  63  73 SE5       30.13F
Lafayette      MOSUNNY   71  65  81 CALM      30.11F
Madison        CLOUDY    71  65  81 SW8       30.04S
Milwaukee      PTSUNNY   73  63  70 SW14      30.05F
$$






USA.gov is the U.S. government's official web portal to all federal, state and local government web resources and services.